Location: Berkeley
(37.8716°N, 122.2727°W)
Time: 21:27:40
(UTC-07:00)

Altair - Visible Passes

Search period start: 07 June 2026 00:00
Search period end: 17 June 2026 00:00
Orbit: 1501 x 1682 km, 47.2° (Epoch: 6 June)

Date Brightness Start Highest point End Pass type
(mag) Time Alt. Az. Time Alt. Az. Time Alt. Az.
7 Jun 7.5 00:11:19 10° WSW 00:20:42 79° NNW 00:30:30 10° ENE visible
7 Jun 8.3 02:17:20 10° W 02:26:33 50° N 02:36:08 10° ENE visible
7 Jun 8.2 04:23:11 10° WNW 04:32:51 61° NNE 04:42:50 10° E visible
7 Jun 7.9 21:43:24 10° SSW 21:51:25 34° SE 21:59:38 10° ENE visible
7 Jun 7.5 23:46:05 10° WSW 23:55:26 84° NNW 00:05:12 10° ENE visible
8 Jun 8.3 01:51:59 10° W 02:01:11 50° N 02:10:45 10° ENE visible
8 Jun 8.2 03:57:54 10° WNW 04:07:30 59° NNE 04:17:25 10° E visible
8 Jun 8.0 21:18:34 10° S 21:26:18 31° SE 21:34:12 10° ENE visible
8 Jun 7.4 23:20:51 10° WSW 23:30:11 88° NNW 23:39:54 10° ENE visible
9 Jun 8.2 01:26:37 10° W 01:35:48 51° N 01:45:21 10° ENE visible
9 Jun 8.2 03:32:37 10° WNW 03:42:09 57° NNE 03:51:59 10° E visible
9 Jun 8.1 20:53:47 10° S 21:01:11 28° SE 21:08:43 10° ENE visible
9 Jun 7.4 22:55:39 10° SW 23:04:56 87° SE 23:14:36 10° ENE visible
10 Jun 8.2 01:01:17 10° W 01:10:27 52° N 01:19:58 10° ENE visible
10 Jun 8.2 03:07:20 10° WNW 03:16:47 55° NNE 03:26:33 10° E visible
10 Jun 7.7 05:12:21 10° WNW 05:22:12 79° SW 05:32:19 10° SE visible
10 Jun 7.4 22:30:27 10° SW 22:39:42 82° SE 22:49:19 10° ENE visible
11 Jun 8.2 00:35:56 10° W 00:45:05 53° NNW 00:54:37 10° ENE visible
11 Jun 8.3 02:42:02 10° WNW 02:51:25 53° NNE 03:01:08 10° E visible
11 Jun 7.6 04:47:06 10° WNW 04:56:56 84° SW 05:07:04 10° SE visible
11 Jun 7.4 22:05:17 10° SW 22:14:29 77° SE 22:24:01 10° ENE visible
12 Jun 8.1 00:10:36 10° W 00:19:45 55° NNW 00:29:16 10° ENE visible
12 Jun 8.3 02:16:44 10° WNW 02:26:03 52° N 02:35:42 10° E visible
12 Jun 7.6 04:21:51 10° WNW 04:31:40 88° SSW 04:41:47 10° SE visible
12 Jun 7.4 21:40:08 10° SW 21:49:16 72° SE 21:58:44 10° ENE visible
12 Jun 8.1 23:45:15 10° W 23:54:24 56° NNW 00:03:55 10° ENE visible
13 Jun 8.3 01:51:27 10° WNW 02:00:40 51° N 02:10:16 10° E visible
13 Jun 7.6 03:56:36 10° WNW 04:06:23 87° NE 04:16:29 10° ESE visible
13 Jun 7.4 21:15:01 10° SW 21:24:05 67° SE 21:33:26 10° ENE visible
13 Jun 8.0 23:19:56 10° W 23:29:04 58° NNW 23:38:35 10° ENE visible
14 Jun 8.3 01:26:09 10° WNW 01:35:19 50° N 01:44:50 10° E visible
14 Jun 7.6 03:31:21 10° WNW 03:41:06 83° NNE 03:51:11 10° ESE visible
14 Jun 7.5 20:49:55 10° SW 20:58:54 62° SE 21:08:08 10° ENE visible
14 Jun 8.0 22:54:36 10° W 23:03:45 60° NNW 23:13:16 10° ENE visible
15 Jun 8.3 01:00:50 10° WNW 01:09:57 49° N 01:19:24 10° E visible
15 Jun 7.7 03:06:07 10° WNW 03:15:49 79° NNE 03:25:51 10° ESE visible
15 Jun 8.0 05:11:18 10° WNW 05:20:11 40° SW 05:29:18 10° SSE visible
15 Jun 7.9 22:29:17 10° WSW 22:38:26 63° NNW 22:47:57 10° ENE visible
16 Jun 8.3 00:35:31 10° WNW 00:44:34 49° N 00:53:58 10° ENE visible
16 Jun 7.7 02:40:52 10° WNW 02:50:31 75° NNE 03:00:30 10° ESE visible
16 Jun 7.8 04:45:57 10° WNW 04:54:59 44° SW 05:04:17 10° SSE visible
16 Jun 7.9 22:03:58 10° WSW 22:13:09 66° NNW 22:22:39 10° ENE visible
